RH
54 53 50 48 46 44 43 42 42 42 41 40 38 36 34 31 29 28 28 26 23 22 18 14 13 12 10 10 12 15 18 19 18 16 17 18 17 13 15 27 40 85 73 74 89 90 91
53 49 47 44 43 43 42 42 42 41 41 39 37 34 32 30 30 30 27 25 22 19 14 11 9 7 6 9 13 14 15 17 16 17 17 18 20 23 24 22 39 82 100 100 100 96 98
53 48 46 46 46 44 43 43 44 43 41 38 35 33 32 32 31 29 26 22 17 11 9 7 5 5 5 10 15 18 17 17 16 16 18 20 22 23 29 33 57 70 91 99 88 78 84
53 51 49 50 48 46 46 46 44 42 40 39 37 36 35 33 30 27 22 16 10 7 5 4 4 4 8 13 14 15 19 16 12 9 9 7 7 24 70 81 89 86 92 100 98 90 86
57 55 54 52 49 51 46 46 46 44 42 41 40 37 34 32 28 22 18 8 6 4 3 3 5 7 11 13 17 11 6 4 3 2 2 3 7 48 84 99 90 100 96 92 86 86 84
63 58 56 53 52 52 49 47 46 44 44 42 39 36 35 32 24 17 9 5 3 3 3 5 8 11 14 10 6 6 5 2 2 2 4 8 24 87 79 52 59 58 59 57 66 72 67
62 60 59 54 53 54 53 50 49 48 46 44 40 37 36 28 19 12 6 3 2 3 3 6 11 13 12 6 4 4 2 2 2 3 3 9 18 34 49 48 47 45 43 52 53 65 61
62 62 62 58 58 57 57 56 52 50 48 46 41 38 36 26 15 7 4 2 1 1 4 16 18 13 9 3 5 5 3 2 3 3 7 14 28 47 47 49 45 45 47 48 48 48 50
59 64 64 64 63 60 63 60 56 54 50 45 42 39 32 22 12 5 2 2 1 1 8 17 16 9 6 2 8 6 4 3 5 7 21 32 38 35 37 46 53 58 48 42 54 51 38
52 68 70 68 69 65 65 58 54 55 56 48 43 39 28 18 8 4 2 1 1 5 20 21 14 10 4 4 12 11 5 7 13 11 9 18 36 45 47 46 59 45 50 44 40 46 50
56 73 73 70 74 71 66 60 55 56 57 50 43 38 23 10 5 2 1 1 2 12 34 22 15 10 6 5 8 14 8 10 17 20 11 15 20 34 28 57 45 33 54 58 45 34 33
60 65 76 78 82 75 68 63 57 57 57 50 42 32 20 8 2 2 1 1 6 22 44 16 13 7 6 8 13 19 7 12 26 23 16 14 19 13 22 34 62 62 51 40 35 45 76
69 82 85 88 84 78 71 65 61 60 59 50 42 29 11 5 2 1 1 1 8 10 12 16 6 9 7 11 11 17 24 25 42 48 52 24 20 18 14 45 27 33 71 80 70 73 81
78 88 94 90 85 82 75 71 66 65 62 51 38 23 12 3 2 1 1 1 4 10 4 3 6 14 14 15 18 22 28 57 60 66 68 67 56 31 27 61 84 79 82 92 96 88 87
93 85 97 88 90 85 82 81 71 69 65 50 34 16 8 3 1 1 1 1 2 2 2 3 7 14 15 15 10 11 54 87 98 98 79 57 58 19 52 54 89 72 91 80 97 70 92
96 72 90 100 89 92 93 87 75 71 68 50 29 11 5 3 1 1 1 2 2 1 1 3 8 10 11 10 6 8 43 60 86 91 74 55 71 34 51 61 76 83 82 78 76 98 95
95 74 98 100 93 98 99 94 81 76 71 44 21 11 4 2 1 1 1 1 1 1 2 4 6 9 11 14 9 30 57 60 86 51 26 43 82 44 54 77 89 89 79 73 80 90 97
98 94 90 99 95 99 100 97 86 84 75 42 17 6 6 1 2 1 1 1 2 2 2 5 4 8 9 7 7 33 56 48 30 28 48 77 86 93 83 96 98 92 81 83 93 87 92
100 99 99 99 96 99 100 99 91 88 78 34 10 5 3 1 1 1 1 1 2 2 2 4 4 5 6 4 10 23 55 28 24 35 59 62 84 83 76 95 95 90 84 92 83 100 99
100 99 98 97 99 100 100 100 95 92 82 26 9 3 2 2 2 1 1 1 2 2 3 3 4 4 4 3 5 7 19 22 14 44 73 79 73 68 87 92 96 94 97 95 81 93 98
100 100 99 100 100 97 100 99 98 97 73 32 5 3 2 2 1 1 1 2 2 2 3 3 4 4 3 3 4 7 11 10 22 44 52 50 45 51 34 10 44 98 99 90 50 56 78
99 100 100 99 99 98 100 99 100 99 87 27 4 2 1 1 1 1 2 2 2 2 3 3 4 4 4 4 4 5 8 23 24 24 8 8 9 10 14 77 92 97 94 59 16 16 20
99 100 99 99 99 99 100 99 100 99 90 18 2 1 1 1 1 1 2 2 2 3 4 4 4 4 4 5 5 7 14 21 18 13 8 11 7 14 72 95 98 87 74 16 17 27 41
99 99 99 99 99 100 99 99 100 98 70 5 1 1 1 1 2 2 2 2 3 3 4 4 4 5 6 6 6 13 16 21 16 12 10 13 8 26 93 95 93 76 24 21 21 18 16
100 99 99 99 99 100 98 99 98 99 47 2 1 1 2 2 2 2 2 3 3 4 4 5 5 6 6 7 8 13 26 23 13 11 13 15 14 22 91 100 57 51 25 26 26 22 33
99 99 99 99 99 99 99 99 99 79 5 13 1 1 2 2 2 2 2 3 4 4 5 5 6 7 7 8 8 11 10 10 10 12 14 16 18 22 23 74 95 48 26 32 29 34 35
99 99 99 99 98 98 99 99 95 26 39 7 18 2 2 2 2 2 3 4 4 5 6 6 7 8 8 10 10 10 14 16 13 12 14 18 20 24 25 28 25 28 27 34 33 30 36
99 99 99 99 98 99 99 98 84 62 28 45 16 2 2 2 3 3 4 4 5 6 6 7 8 9 9 11 11 11 11 12 13 14 17 20 22 24 26 32 34 22 30 34 30 33 37
99 99 99 99 98 99 98 95 89 28 52 59 6 2 3 3 3 4 4 5 6 6 8 9 8 9 11 11 12 13 13 14 14 16 20 23 22 26 27 22 23 23 27 26 27 31 39
Wind_Speed
12 12 12 12 11 12 11 12 13 13 14 15 16 17 18 18 18 18 18 18 19 18 18 17 17 17 17 15 13 19 18 17 17 17 18 18 20 21 24 23 25 28 31 31 32 30 30
12 11 11 12 12 12 13 13 13 14 15 15 16 17 18 19 19 19 20 19 19 19 20 20 20 20 15 15 19 19 15 16 15 15 14 14 14 19 24 25 27 25 21 21 25 28 29
10 9 10 10 11 11 12 13 14 15 16 16 17 17 19 20 20 21 20 21 20 21 21 21 20 18 20 17 12 13 21 19 17 16 15 15 13 15 18 22 17 21 28 26 28 25 16
9 8 9 10 11 12 13 14 15 16 17 17 18 19 20 20 21 22 22 22 21 21 22 20 20 20 11 11 13 14 11 14 17 17 16 16 15 12 12 14 18 20 19 11 8 16 18
8 8 9 9 9 11 14 15 16 17 18 18 20 20 21 22 22 22 22 21 22 23 21 19 17 10 7 13 8 12 16 17 17 18 15 14 12 7 11 12 14 6 12 16 19 20 19
10 10 10 9 9 10 13 16 17 17 19 20 20 20 21 22 22 22 21 22 21 21 16 14 12 9 11 11 11 20 21 23 20 17 14 11 5 6 10 15 7 15 18 21 18 22 23
10 9 10 9 10 11 13 15 18 18 19 20 21 22 23 21 22 22 22 21 19 14 17 10 10 11 12 20 25 23 25 26 24 15 12 3 4 8 13 12 13 17 20 21 22 11 21
12 10 9 10 10 12 15 16 18 19 19 20 21 24 24 22 21 22 21 19 17 15 12 9 12 14 19 26 23 27 31 29 27 25 17 5 10 11 13 15 16 17 15 14 12 16 14
12 11 9 9 11 10 13 15 18 20 20 20 21 23 23 23 21 20 17 17 17 15 6 4 5 8 20 26 21 29 30 28 26 21 16 11 11 12 12 15 18 16 13 20 21 24 22
14 14 12 10 10 10 12 16 19 21 22 22 21 22 22 22 21 20 18 19 18 13 2 5 14 15 22 25 18 26 27 27 21 21 12 7 9 10 12 12 16 21 18 23 23 26 20
16 16 15 12 11 11 14 17 19 21 20 21 22 22 21 21 20 18 18 18 16 11 2 8 14 17 24 18 19 22 23 22 13 16 14 11 14 9 17 14 21 22 16 17 24 28 31
19 20 18 12 12 13 14 18 21 22 22 22 23 22 22 21 19 17 16 15 11 3 1 7 8 14 17 18 19 21 23 20 8 14 17 10 11 14 21 20 10 12 22 23 18 20 3
22 20 18 15 16 16 16 18 20 23 22 22 23 22 20 19 16 15 14 12 4 2 7 3 9 12 16 17 17 21 22 22 17 14 24 11 13 13 21 22 15 16 20 6 4 2 3
22 21 18 18 18 17 17 17 21 24 24 22 23 23 21 17 15 14 11 8 3 3 3 6 8 9 10 15 12 17 16 15 17 19 14 13 8 27 16 18 20 13 10 6 5 3 6
25 21 21 22 21 27 18 17 21 23 25 21 21 22 21 17 15 13 10 2 2 3 4 4 5 3 5 10 11 12 13 9 12 16 14 10 11 24 8 18 12 11 8 12 7 11 4
25 25 24 23 22 23 14 18 22 24 24 21 20 20 15 15 13 10 7 4 4 4 3 3 2 3 6 11 9 12 6 7 8 11 17 14 14 11 18 14 7 8 13 7 7 3 4
26 26 26 23 24 25 16 19 21 24 24 21 20 19 14 12 11 7 6 4 3 4 3 2 4 3 5 8 10 5 2 9 9 17 19 18 6 17 18 11 13 11 15 9 8 6 3
31 31 33 28 29 20 20 20 21 23 24 22 20 17 15 11 10 7 6 3 4 4 4 3 3 3 4 7 5 3 5 6 15 17 18 7 8 11 16 12 10 11 19 15 3 5 6
33 33 33 28 29 22 21 22 22 24 23 22 20 18 11 10 7 8 5 5 5 5 4 3 3 3 4 5 3 6 7 10 13 16 9 8 4 8 8 7 10 17 19 12 12 6 7
35 35 30 30 29 25 20 25 25 24 22 21 19 12 12 11 7 8 6 7 6 6 6 5 5 4 4 5 3 5 7 8 13 10 8 10 9 10 9 16 21 20 17 11 11 7 7
35 30 30 30 28 24 21 26 27 25 20 20 17 12 12 11 11 8 8 7 7 6 7 6 5 5 3 3 6 5 6 8 9 7 9 10 9 11 16 22 19 14 12 14 11 12 9
35 33 27 26 30 26 22 27 29 27 21 20 16 14 13 13 12 10 9 9 8 7 7 7 8 5 4 4 4 6 7 5 3 5 6 8 6 14 12 6 8 11 13 11 17 15 18
38 37 29 28 30 27 23 26 30 28 21 18 15 14 13 13 12 11 11 10 9 8 8 8 7 6 5 5 4 6 6 7 5 4 5 10 8 9 3 8 12 5 5 14 15 11 11
36 36 32 29 30 26 24 26 30 31 18 17 16 14 14 15 14 13 12 10 10 9 9 9 8 7 6 5 5 6 6 7 6 4 5 9 8 5 4 6 2 2 7 13 12 10 11
40 39 33 31 29 27 27 29 33 30 15 15 16 14 15 17 14 15 14 12 11 10 10 10 9 8 7 6 6 5 5 5 4 6 5 7 5 4 3 4 10 2 8 13 13 5 12
38 37 31 29 25 26 28 32 32 17 13 15 15 15 16 16 15 16 15 13 13 12 12 12 11 10 9 7 5 4 3 3 3 5 6 7 6 5 5 3 5 5 9 13 11 3 12
35 32 30 30 27 27 31 31 23 13 13 15 15 17 16 16 17 14 16 14 14 14 14 13 13 12 11 9 8 7 6 6 4 5 6 8 8 10 9 6 8 9 10 12 3 6 10
32 28 28 28 30 29 32 31 17 16 12 13 17 16 16 16 16 14 16 15 14 15 15 13 14 16 15 13 8 7 7 8 8 9 8 6 5 6 6 6 7 7 12 7 9 9 10
28 29 33 28 27 31 30 21 18 10 14 14 16 16 15 15 12 12 16 16 16 16 15 16 17 10 11 12 11 8 9 8 10 6 10 8 9 7 8 8 15 13 12 12 12 13 14
Wind_Direction
357 359 358 354 356 355 358 358 359 359 358 355 349 345 345 346 344 343 339 337 334 333 331 327 322 320 318 304 293 297 298 293 291 287 279 273 268 262 255 256 257 260 269 270 275 275 277
356 2 7 3 2 5 0 1 2 359 357 353 351 349 346 345 342 341 338 338 335 335 330 329 325 321 316 302 307 305 306 307 310 310 302 293 278 266 258 257 254 258 260 264 269 274 275
354 2 5 7 1 1 2 360 356 353 352 353 351 348 345 344 341 340 339 337 336 336 331 329 325 322 314 317 314 331 331 329 328 332 329 322 308 292 290 293 283 277 281 283 287 287 287
344 355 359 357 0 358 359 355 354 352 352 353 349 347 344 344 342 339 340 336 337 333 332 330 325 320 330 338 331 338 345 347 355 343 337 330 328 321 306 294 289 297 298 299 258 263 263
328 338 347 353 360 359 358 354 352 350 351 349 346 346 345 343 341 340 338 337 337 335 333 333 331 327 6 347 339 349 340 340 342 330 323 314 300 280 266 278 300 267 297 310 305 305 304
320 327 335 345 349 355 355 349 346 348 346 345 344 344 344 343 340 337 338 339 339 336 328 333 332 332 359 3 351 350 344 341 348 347 338 324 308 268 284 305 338 326 318 316 322 324 312
307 313 322 331 333 347 349 345 341 344 342 342 339 340 344 343 338 337 339 342 337 325 323 329 354 13 14 359 343 346 348 355 357 3 23 171 261 7 0 346 322 311 310 313 315 306 319
294 300 315 323 330 343 344 344 340 342 340 342 338 338 340 341 340 340 343 338 334 323 316 14 33 20 1 355 341 352 0 356 358 9 25 31 39 20 341 331 322 323 335 335 319 308 318
282 286 297 314 322 337 341 343 339 339 339 339 337 337 337 339 343 339 336 338 335 331 294 71 48 8 358 354 353 355 359 357 4 20 39 60 6 332 316 322 329 337 334 332 322 318 303
273 275 283 300 312 324 334 338 337 334 333 331 335 336 334 337 342 339 342 342 338 333 218 18 358 353 357 360 354 358 357 8 11 31 46 37 12 3 347 342 340 331 318 312 309 308 298
267 273 278 288 301 320 329 332 335 335 331 330 333 333 334 339 340 341 344 343 340 335 3 345 355 348 347 5 354 355 2 0 22 28 30 25 12 18 4 345 319 310 313 314 300 291 285
269 270 270 273 294 314 324 328 335 336 332 331 330 331 335 340 341 342 345 342 342 340 291 326 340 324 343 358 1 355 358 5 21 2 2 21 13 13 356 335 337 320 325 324 319 289 260
261 258 262 269 281 300 314 322 335 337 330 330 328 329 335 337 338 341 343 343 316 96 307 286 319 331 346 357 355 357 359 3 19 5 358 0 358 352 346 331 329 323 349 326 329 310 241
248 260 264 272 278 291 301 315 325 332 329 327 326 328 334 334 335 341 341 335 239 250 266 299 328 330 343 358 352 355 359 2 7 3 352 356 329 344 345 349 333 338 324 281 302 282 281
239 251 258 264 271 296 285 310 317 324 328 323 326 327 329 332 336 334 333 299 242 245 283 305 308 320 341 347 353 358 356 12 0 5 14 340 303 339 342 338 330 328 330 307 280 287 285
246 256 255 262 267 284 289 305 315 321 322 321 324 322 323 326 328 320 321 274 241 229 260 290 303 303 330 342 351 350 353 331 334 332 336 329 305 345 337 345 341 9 356 356 313 308 290
250 253 255 259 267 282 286 301 312 319 318 318 319 319 316 317 320 299 289 262 232 229 264 296 300 290 330 342 341 337 301 313 306 316 328 329 297 316 334 334 336 351 353 354 297 271 295
258 252 250 262 271 271 286 295 310 314 312 314 315 314 313 308 308 281 275 270 251 236 260 266 288 314 326 329 314 276 270 302 314 326 333 338 296 300 313 313 311 323 343 347 329 308 292
258 274 263 259 268 275 280 293 305 310 305 309 310 310 303 299 269 274 259 249 240 237 252 256 263 288 306 311 292 258 287 303 315 317 321 326 282 309 303 292 303 315 329 335 329 286 253
263 272 267 270 269 266 276 287 306 304 300 304 306 300 298 297 261 278 259 237 232 236 242 255 259 279 289 302 258 271 261 293 304 299 294 308 277 277 252 288 293 303 309 324 325 269 278
265 269 273 278 268 261 272 283 301 300 294 299 299 292 290 277 278 263 252 243 240 240 247 253 253 261 271 254 276 269 277 293 304 305 301 302 282 276 280 290 292 300 306 325 328 309 275
259 262 270 267 261 260 274 285 299 296 290 292 288 286 283 277 272 256 248 248 250 252 253 246 253 265 265 263 261 276 285 295 263 303 320 335 300 301 307 322 311 296 304 324 328 317 300
260 263 272 270 268 265 273 286 295 289 284 286 282 275 273 273 264 251 245 247 248 251 253 249 254 265 276 276 286 292 304 312 317 317 347 336 324 310 283 315 313 293 334 337 338 336 334
262 269 271 274 280 268 274 283 289 289 276 280 273 267 264 266 260 251 248 245 247 248 249 246 251 263 269 274 283 298 286 297 301 302 324 339 334 316 286 317 351 265 327 344 351 14 9
261 271 268 278 279 269 269 282 289 287 268 274 268 264 260 258 256 246 247 247 250 249 241 238 247 251 257 260 273 274 265 269 266 257 281 329 343 305 271 255 286 223 345 345 338 333 5
264 266 266 278 282 277 275 282 291 260 262 268 258 262 257 255 256 244 246 245 246 245 243 244 240 243 246 253 255 232 227 224 237 252 264 306 306 274 267 241 221 214 334 337 330 254 353
264 264 267 275 279 278 276 281 270 246 252 256 262 255 253 254 253 252 248 251 247 244 244 244 241 237 242 242 239 237 222 214 225 225 245 286 280 261 257 257 263 259 299 321 320 315 347
262 258 279 280 275 278 277 280 244 241 254 254 257 254 252 251 256 254 250 252 251 248 247 245 231 240 235 226 229 226 226 223 237 241 257 245 232 233 229 239 274 252 291 277 297 309 323
258 264 273 274 270 275 277 259 240 245 249 261 253 251 250 249 258 252 249 249 249 248 246 243 242 242 225 218 219 218 222 238 243 253 240 244 225 243 234 252 284 287 282 284 286 292 302